Year,Month,Day,Hour,Minute,Value (Times are PST for windgust in km/hr)
2010,10,25,00,00,11.30
2010,10,25,00,01,9.60
2010,10,25,00,02,11.30
2010,10,25,00,03,8.10
2010,10,25,00,04,14.50
2010,10,25,00,05,14.50
2010,10,25,00,06,6.40
2010,10,25,00,07,8.10
2010,10,25,00,08,8.10
2010,10,25,00,09,9.60
2010,10,25,00,10,11.30
2010,10,25,00,11,8.10
2010,10,25,00,12,9.60
2010,10,25,00,13,12.90
2010,10,25,00,14,9.60
2010,10,25,00,15,6.40
2010,10,25,00,16,6.40
2010,10,25,00,17,8.10
2010,10,25,00,18,8.10
2010,10,25,00,19,8.10
2010,10,25,00,20,6.40
2010,10,25,00,21,11.30
2010,10,25,00,22,8.10
2010,10,25,00,23,8.10
2010,10,25,00,24,8.10
2010,10,25,00,25,6.40
2010,10,25,00,26,8.10
2010,10,25,00,27,6.40
2010,10,25,00,28,9.60
2010,10,25,00,29,9.60
2010,10,25,00,30,17.70
2010,10,25,00,31,9.60
2010,10,25,00,32,9.60
2010,10,25,00,33,11.30
2010,10,25,00,34,11.30
2010,10,25,00,35,8.10
2010,10,25,00,36,16.10
2010,10,25,00,37,14.50
2010,10,25,00,38,9.60
2010,10,25,00,39,11.30
2010,10,25,00,40,9.60
2010,10,25,00,41,9.60
2010,10,25,00,42,11.30
2010,10,25,00,43,12.90
2010,10,25,00,44,17.70
2010,10,25,00,45,19.30
2010,10,25,00,46,16.10
2010,10,25,00,47,11.30
2010,10,25,00,48,8.10
2010,10,25,00,49,8.10
2010,10,25,00,50,8.10
2010,10,25,00,51,16.10
2010,10,25,00,52,14.50
2010,10,25,00,53,11.30
2010,10,25,00,54,8.10
2010,10,25,00,55,8.10
2010,10,25,00,56,6.40
2010,10,25,00,57,9.60
2010,10,25,00,58,11.30
2010,10,25,00,59,11.30
2010,10,25,01,00,11.30
2010,10,25,01,01,11.30
2010,10,25,01,02,9.60
2010,10,25,01,03,14.50
2010,10,25,01,04,9.60
2010,10,25,01,05,11.30
2010,10,25,01,06,17.70
2010,10,25,01,07,11.30
2010,10,25,01,08,16.10
2010,10,25,01,09,11.30
2010,10,25,01,10,14.50
2010,10,25,01,11,19.30
2010,10,25,01,12,16.10
2010,10,25,01,13,20.90
2010,10,25,01,14,17.70
2010,10,25,01,15,17.70
2010,10,25,01,16,9.60
2010,10,25,01,17,8.10
2010,10,25,01,18,16.10
2010,10,25,01,19,17.70
2010,10,25,01,20,12.90
2010,10,25,01,21,14.50
2010,10,25,01,22,20.90
2010,10,25,01,23,17.70
2010,10,25,01,24,14.50
2010,10,25,01,25,16.10
2010,10,25,01,26,19.30
2010,10,25,01,27,16.10
2010,10,25,01,28,12.90
2010,10,25,01,29,19.30
2010,10,25,01,30,16.10
2010,10,25,01,31,17.70
2010,10,25,01,32,12.90
2010,10,25,01,33,17.70
2010,10,25,01,34,19.30
2010,10,25,01,35,17.70
2010,10,25,01,36,11.30
2010,10,25,01,37,9.60
2010,10,25,01,38,14.50
2010,10,25,01,39,20.90
2010,10,25,01,40,16.10
2010,10,25,01,41,14.50
2010,10,25,01,42,16.10
2010,10,25,01,43,14.50
2010,10,25,01,44,19.30
2010,10,25,01,45,16.10
2010,10,25,01,46,16.10
2010,10,25,01,47,17.70
2010,10,25,01,48,9.60
2010,10,25,01,49,6.40
2010,10,25,01,50,12.90
2010,10,25,01,51,16.10
2010,10,25,01,52,8.10
2010,10,25,01,53,16.10
2010,10,25,01,54,12.90
2010,10,25,01,55,11.30
2010,10,25,01,56,16.10
2010,10,25,01,57,14.50
2010,10,25,01,58,8.10
2010,10,25,01,59,11.30
2010,10,25,02,00,19.30
2010,10,25,02,01,12.90
2010,10,25,02,02,12.90
2010,10,25,02,03,12.90
2010,10,25,02,04,11.30
2010,10,25,02,05,12.90
2010,10,25,02,06,9.60
2010,10,25,02,07,9.60
2010,10,25,02,08,8.10
2010,10,25,02,09,4.80
2010,10,25,02,10,3.20
2010,10,25,02,11,4.80
2010,10,25,02,12,6.40
2010,10,25,02,13,6.40
2010,10,25,02,14,6.40
2010,10,25,02,15,6.40
2010,10,25,02,16,9.60
2010,10,25,02,17,6.40
2010,10,25,02,18,3.20
2010,10,25,02,19,6.40
2010,10,25,02,20,8.10
2010,10,25,02,21,8.10
2010,10,25,02,22,4.80
2010,10,25,02,23,4.80
2010,10,25,02,24,4.80
2010,10,25,02,25,4.80
2010,10,25,02,26,4.80
2010,10,25,02,27,6.40
2010,10,25,02,28,6.40
2010,10,25,02,29,4.80
2010,10,25,02,30,6.40
2010,10,25,02,31,4.80
2010,10,25,02,32,4.80
2010,10,25,02,33,3.20
2010,10,25,02,34,1.60
2010,10,25,02,35,3.20
2010,10,25,02,36,1.60
2010,10,25,02,43,3.20
2010,10,25,02,44,6.40
2010,10,25,02,45,3.20
2010,10,25,02,49,1.60
2010,10,25,02,52,1.60
2010,10,25,02,53,3.20
2010,10,25,02,54,1.60
2010,10,25,02,55,3.20
2010,10,25,02,56,1.60
2010,10,25,03,02,3.20
2010,10,25,03,03,4.80
2010,10,25,03,04,3.20
2010,10,25,03,05,4.80
2010,10,25,03,06,1.60
2010,10,25,03,19,1.60
2010,10,25,03,20,1.60
2010,10,25,03,32,1.60
2010,10,25,03,33,1.60
2010,10,25,03,35,3.20
2010,10,25,03,36,3.20
2010,10,25,03,37,3.20
2010,10,25,03,38,3.20
2010,10,25,03,39,3.20
2010,10,25,03,46,1.60
2010,10,25,03,47,1.60
2010,10,25,03,53,1.60
2010,10,25,03,54,3.20
2010,10,25,03,55,3.20
2010,10,25,03,56,3.20
2010,10,25,03,57,3.20
2010,10,25,03,58,3.20
2010,10,25,03,59,4.80
2010,10,25,04,00,6.40
2010,10,25,04,01,4.80
2010,10,25,04,02,3.20
2010,10,25,04,03,4.80
2010,10,25,04,04,3.20
2010,10,25,04,05,3.20
2010,10,25,04,06,4.80
2010,10,25,04,07,4.80
2010,10,25,04,08,6.40
2010,10,25,04,09,4.80
2010,10,25,04,10,4.80
2010,10,25,04,11,4.80
2010,10,25,04,12,4.80
2010,10,25,04,13,3.20
2010,10,25,04,14,6.40
2010,10,25,04,15,8.10
2010,10,25,04,16,6.40
2010,10,25,04,17,4.80
2010,10,25,04,18,1.60
2010,10,25,04,19,3.20
2010,10,25,04,20,1.60
2010,10,25,04,23,3.20
2010,10,25,04,24,4.80
2010,10,25,04,25,4.80
2010,10,25,04,26,6.40
2010,10,25,04,27,6.40
2010,10,25,04,28,6.40
2010,10,25,04,29,4.80
2010,10,25,04,30,4.80
2010,10,25,04,31,4.80
2010,10,25,04,32,4.80
2010,10,25,04,33,4.80
2010,10,25,04,34,3.20
2010,10,25,04,35,6.40
2010,10,25,04,36,8.10
2010,10,25,04,37,9.60
2010,10,25,04,38,4.80
2010,10,25,04,39,9.60
2010,10,25,04,40,11.30
2010,10,25,04,41,9.60
2010,10,25,04,42,8.10
2010,10,25,04,43,8.10
2010,10,25,04,44,9.60
2010,10,25,04,45,11.30
2010,10,25,04,46,9.60
2010,10,25,04,47,8.10
2010,10,25,04,48,6.40
2010,10,25,04,49,9.60
2010,10,25,04,50,8.10
2010,10,25,04,51,8.10
2010,10,25,04,52,8.10
2010,10,25,04,53,6.40
2010,10,25,04,54,6.40
2010,10,25,04,55,6.40
2010,10,25,04,56,8.10
2010,10,25,04,57,9.60
2010,10,25,04,58,4.80
2010,10,25,04,59,6.40
2010,10,25,05,00,6.40
2010,10,25,05,01,6.40
2010,10,25,05,02,8.10
2010,10,25,05,03,8.10
2010,10,25,05,04,9.60
2010,10,25,05,05,9.60
2010,10,25,05,06,6.40
2010,10,25,05,07,8.10
2010,10,25,05,08,6.40
2010,10,25,05,09,8.10
2010,10,25,05,10,8.10
2010,10,25,05,11,11.30
2010,10,25,05,12,4.80
2010,10,25,05,13,4.80
2010,10,25,05,14,6.40
2010,10,25,05,15,6.40
2010,10,25,05,16,6.40
2010,10,25,05,17,6.40
2010,10,25,05,18,4.80
2010,10,25,05,19,4.80
2010,10,25,05,20,4.80
2010,10,25,05,21,4.80
2010,10,25,05,22,1.60
2010,10,25,05,23,1.60
2010,10,25,05,24,4.80
2010,10,25,05,25,3.20
2010,10,25,05,26,1.60
2010,10,25,05,27,4.80
2010,10,25,05,28,4.80
2010,10,25,05,29,6.40
2010,10,25,05,30,6.40
2010,10,25,05,31,6.40
2010,10,25,05,32,4.80
2010,10,25,05,33,6.40
2010,10,25,05,34,8.10
2010,10,25,05,35,8.10
2010,10,25,05,36,6.40
2010,10,25,05,37,6.40
2010,10,25,05,38,8.10
2010,10,25,05,39,8.10
2010,10,25,05,40,4.80
2010,10,25,05,41,4.80
2010,10,25,05,42,6.40
2010,10,25,05,43,9.60
2010,10,25,05,44,9.60
2010,10,25,05,45,9.60
2010,10,25,05,46,6.40
2010,10,25,05,47,4.80
2010,10,25,05,48,6.40
2010,10,25,05,49,9.60
2010,10,25,05,50,8.10
2010,10,25,05,51,6.40
2010,10,25,05,52,8.10
2010,10,25,05,53,8.10
2010,10,25,05,54,8.10
2010,10,25,05,55,9.60
2010,10,25,05,56,8.10
2010,10,25,05,57,11.30
2010,10,25,05,58,9.60
2010,10,25,05,59,8.10
2010,10,25,06,00,11.30
2010,10,25,06,01,8.10
2010,10,25,06,02,8.10
2010,10,25,06,03,9.60
2010,10,25,06,04,6.40
2010,10,25,06,05,8.10
2010,10,25,06,06,8.10
2010,10,25,06,07,6.40
2010,10,25,06,08,8.10
2010,10,25,06,09,6.40
2010,10,25,06,10,8.10
2010,10,25,06,11,6.40
2010,10,25,06,12,11.30
2010,10,25,06,13,14.50
2010,10,25,06,14,12.90
2010,10,25,06,15,9.60
2010,10,25,06,16,14.50
2010,10,25,06,17,17.70
2010,10,25,06,18,17.70
2010,10,25,06,19,11.30
2010,10,25,06,20,11.30
2010,10,25,06,21,12.90
2010,10,25,06,22,14.50
2010,10,25,06,23,16.10
2010,10,25,06,24,16.10
2010,10,25,06,25,17.70
2010,10,25,06,26,16.10
2010,10,25,06,27,14.50
2010,10,25,06,28,11.30
2010,10,25,06,29,16.10
2010,10,25,06,30,14.50
2010,10,25,06,31,17.70
2010,10,25,06,32,12.90
2010,10,25,06,33,11.30
2010,10,25,06,34,11.30
2010,10,25,06,35,11.30
2010,10,25,06,36,9.60
2010,10,25,06,37,6.40
2010,10,25,06,38,11.30
2010,10,25,06,39,9.60
2010,10,25,06,40,12.90
2010,10,25,06,41,11.30
2010,10,25,06,42,8.10
2010,10,25,06,43,14.50
2010,10,25,06,44,14.50
2010,10,25,06,45,9.60
2010,10,25,06,46,17.70
2010,10,25,06,47,11.30
2010,10,25,06,48,11.30
2010,10,25,06,49,11.30
2010,10,25,06,50,14.50
2010,10,25,06,51,16.10
2010,10,25,06,52,14.50
2010,10,25,06,53,11.30
2010,10,25,06,54,11.30
2010,10,25,06,55,11.30
2010,10,25,06,56,11.30
2010,10,25,06,57,19.30
2010,10,25,06,58,16.10
2010,10,25,06,59,17.70
2010,10,25,07,00,14.50
2010,10,25,07,01,14.50
2010,10,25,07,02,17.70
2010,10,25,07,03,14.50
2010,10,25,07,04,16.10
2010,10,25,07,05,17.70
2010,10,25,07,06,11.30
2010,10,25,07,07,12.90
2010,10,25,07,08,11.30
2010,10,25,07,09,19.30
2010,10,25,07,10,16.10
2010,10,25,07,11,16.10
2010,10,25,07,12,17.70
2010,10,25,07,13,11.30
2010,10,25,07,14,17.70
2010,10,25,07,15,17.70
2010,10,25,07,16,14.50
2010,10,25,07,17,14.50
2010,10,25,07,18,11.30
2010,10,25,07,19,11.30
2010,10,25,07,20,17.70
2010,10,25,07,21,16.10
2010,10,25,07,22,11.30
2010,10,25,07,23,14.50
2010,10,25,07,24,14.50
2010,10,25,07,25,16.10
2010,10,25,07,26,14.50
2010,10,25,07,27,8.10
2010,10,25,07,28,9.60
2010,10,25,07,29,14.50
2010,10,25,07,30,6.40
2010,10,25,07,31,14.50
2010,10,25,07,32,11.30
2010,10,25,07,33,14.50
2010,10,25,07,34,16.10
2010,10,25,07,35,19.30
2010,10,25,07,36,19.30
2010,10,25,07,37,17.70
2010,10,25,07,38,11.30
2010,10,25,07,39,14.50
2010,10,25,07,40,9.60
2010,10,25,07,41,14.50
2010,10,25,07,42,8.10
2010,10,25,07,43,9.60
2010,10,25,07,44,8.10
2010,10,25,07,45,6.40
2010,10,25,07,46,14.50
2010,10,25,07,47,16.10
2010,10,25,07,48,16.10
2010,10,25,07,49,16.10
2010,10,25,07,50,8.10
2010,10,25,07,51,16.10
2010,10,25,07,52,17.70
2010,10,25,07,53,11.30
2010,10,25,07,54,12.90
2010,10,25,07,55,14.50
2010,10,25,07,56,16.10
2010,10,25,07,57,16.10
2010,10,25,07,58,16.10
2010,10,25,07,59,11.30
2010,10,25,08,00,9.60
2010,10,25,08,01,9.60
2010,10,25,08,02,11.30
2010,10,25,08,03,14.50
2010,10,25,08,04,9.60
2010,10,25,08,05,16.10
2010,10,25,08,06,17.70
2010,10,25,08,07,17.70
2010,10,25,08,08,14.50
2010,10,25,08,09,17.70
2010,10,25,08,10,11.30
2010,10,25,08,11,16.10
2010,10,25,08,12,17.70
2010,10,25,08,13,20.90
2010,10,25,08,14,12.90
2010,10,25,08,15,16.10
2010,10,25,08,16,14.50
2010,10,25,08,17,17.70
2010,10,25,08,18,27.40
2010,10,25,08,19,22.50
2010,10,25,08,20,20.90
2010,10,25,08,21,17.70
2010,10,25,08,22,22.50
2010,10,25,08,23,17.70
2010,10,25,08,24,19.30
2010,10,25,08,25,22.50
2010,10,25,08,26,19.30
2010,10,25,08,27,17.70
2010,10,25,08,28,17.70
2010,10,25,08,29,20.90
2010,10,25,08,30,17.70
2010,10,25,08,31,24.20
2010,10,25,08,32,19.30
2010,10,25,08,33,16.10
2010,10,25,08,34,16.10
2010,10,25,08,35,19.30
2010,10,25,08,36,14.50
2010,10,25,08,37,19.30
2010,10,25,08,38,11.30
2010,10,25,08,39,19.30
2010,10,25,08,40,30.60
2010,10,25,08,41,27.40
2010,10,25,08,42,22.50
2010,10,25,08,43,25.70
2010,10,25,08,44,27.40
2010,10,25,08,45,20.90
2010,10,25,08,46,20.90
2010,10,25,08,47,22.50
2010,10,25,08,48,19.30
2010,10,25,08,49,25.70
2010,10,25,08,50,24.20
2010,10,25,08,51,17.70
2010,10,25,08,52,17.70
2010,10,25,08,53,19.30
2010,10,25,08,54,29.00
2010,10,25,08,55,24.20
2010,10,25,08,56,14.50
2010,10,25,08,57,22.50
2010,10,25,08,58,30.60
2010,10,25,08,59,24.20
2010,10,25,09,00,24.20
2010,10,25,09,01,17.70
2010,10,25,09,02,19.30
2010,10,25,09,03,22.50
2010,10,25,09,04,25.70
2010,10,25,09,05,22.50
2010,10,25,09,06,25.70
2010,10,25,09,07,24.20
2010,10,25,09,08,19.30
2010,10,25,09,09,24.20
2010,10,25,09,10,16.10
2010,10,25,09,11,20.90
2010,10,25,09,12,14.50
2010,10,25,09,13,16.10
2010,10,25,09,14,27.40
2010,10,25,09,15,27.40
2010,10,25,09,16,30.60
2010,10,25,09,17,17.70
2010,10,25,09,18,25.70
2010,10,25,09,19,16.10
2010,10,25,09,20,22.50
2010,10,25,09,21,24.20
2010,10,25,09,22,24.20
2010,10,25,09,23,25.70
2010,10,25,09,24,20.90
2010,10,25,09,25,29.00
2010,10,25,09,26,19.30
2010,10,25,09,27,22.50
2010,10,25,09,28,17.70
2010,10,25,09,29,20.90
2010,10,25,09,30,24.20
2010,10,25,09,31,19.30
2010,10,25,09,32,25.70
2010,10,25,09,33,19.30
2010,10,25,09,34,16.10
2010,10,25,09,35,17.70
2010,10,25,09,36,14.50
2010,10,25,09,37,20.90
2010,10,25,09,38,16.10
2010,10,25,09,39,16.10
2010,10,25,09,40,11.30
2010,10,25,09,41,22.50
2010,10,25,09,42,17.70
2010,10,25,09,43,16.10
2010,10,25,09,44,22.50
2010,10,25,09,45,20.90
2010,10,25,09,46,19.30
2010,10,25,09,47,20.90
2010,10,25,09,48,16.10
2010,10,25,09,49,20.90
2010,10,25,09,50,22.50
2010,10,25,09,51,17.70
2010,10,25,09,52,19.30
2010,10,25,09,53,14.50
2010,10,25,09,54,29.00
2010,10,25,09,55,19.30
2010,10,25,09,56,19.30
2010,10,25,09,57,17.70
2010,10,25,09,58,20.90
2010,10,25,09,59,16.10
2010,10,25,10,00,17.70
2010,10,25,10,01,25.70
2010,10,25,10,02,19.30
2010,10,25,10,03,16.10
2010,10,25,10,04,20.90
2010,10,25,10,05,16.10
2010,10,25,10,06,19.30
2010,10,25,10,07,16.10
2010,10,25,10,08,17.70
2010,10,25,10,09,19.30
2010,10,25,10,10,14.50
2010,10,25,10,11,17.70
2010,10,25,10,12,14.50
2010,10,25,10,13,17.70
2010,10,25,10,14,20.90
2010,10,25,10,15,19.30
2010,10,25,10,16,24.20
2010,10,25,10,17,22.50
2010,10,25,10,18,24.20
2010,10,25,10,19,11.30
2010,10,25,10,20,19.30
2010,10,25,10,21,12.90
2010,10,25,10,22,11.30
2010,10,25,10,23,19.30
2010,10,25,10,24,20.90
2010,10,25,10,25,19.30
2010,10,25,10,26,14.50
2010,10,25,10,27,16.10
2010,10,25,10,28,14.50
2010,10,25,10,29,17.70
2010,10,25,10,30,16.10
2010,10,25,10,31,11.30
2010,10,25,10,32,20.90
2010,10,25,10,33,17.70
2010,10,25,10,34,17.70
2010,10,25,10,35,14.50
2010,10,25,10,36,16.10
2010,10,25,10,37,12.90
2010,10,25,10,38,14.50
2010,10,25,10,39,20.90
2010,10,25,10,40,19.30
2010,10,25,10,41,20.90
2010,10,25,10,42,22.50
2010,10,25,10,43,22.50
2010,10,25,10,44,22.50
2010,10,25,10,45,29.00
2010,10,25,10,46,25.70
2010,10,25,10,47,19.30
2010,10,25,10,48,17.70
2010,10,25,10,49,16.10
2010,10,25,10,50,22.50
2010,10,25,10,51,19.30
2010,10,25,10,52,17.70
2010,10,25,10,53,20.90
2010,10,25,10,54,22.50
2010,10,25,10,55,20.90
2010,10,25,10,56,20.90
2010,10,25,10,57,17.70
2010,10,25,10,58,19.30
2010,10,25,10,59,27.40
2010,10,25,11,00,24.20
2010,10,25,11,01,19.30
2010,10,25,11,02,22.50
2010,10,25,11,03,24.20
2010,10,25,11,04,16.10
2010,10,25,11,05,20.90
2010,10,25,11,06,20.90
2010,10,25,11,07,17.70
2010,10,25,11,08,14.50
2010,10,25,11,09,16.10
2010,10,25,11,10,19.30
2010,10,25,11,11,19.30
2010,10,25,11,12,16.10
2010,10,25,11,13,19.30
2010,10,25,11,14,16.10
2010,10,25,11,15,19.30
2010,10,25,11,16,17.70
2010,10,25,11,17,19.30
2010,10,25,11,18,16.10
2010,10,25,11,19,14.50
2010,10,25,11,20,16.10
2010,10,25,11,21,14.50
2010,10,25,11,22,16.10
2010,10,25,11,23,16.10
2010,10,25,11,24,14.50
2010,10,25,11,25,17.70
2010,10,25,11,26,16.10
2010,10,25,11,27,20.90
2010,10,25,11,28,11.30
2010,10,25,11,29,12.90
2010,10,25,11,30,16.10
2010,10,25,11,31,11.30
2010,10,25,11,32,16.10
2010,10,25,11,33,19.30
2010,10,25,11,34,19.30
2010,10,25,11,35,11.30
2010,10,25,11,36,11.30
2010,10,25,11,37,22.50
2010,10,25,11,38,16.10
2010,10,25,11,39,14.50
2010,10,25,11,40,16.10
2010,10,25,11,41,25.70
2010,10,25,11,42,25.70
2010,10,25,11,43,25.70
2010,10,25,11,44,16.10
2010,10,25,11,45,9.60
2010,10,25,11,46,14.50
2010,10,25,11,47,9.60
2010,10,25,11,48,16.10
2010,10,25,11,49,8.10
2010,10,25,11,50,11.30
2010,10,25,11,51,12.90
2010,10,25,11,52,17.70
2010,10,25,11,53,11.30
2010,10,25,11,54,16.10
2010,10,25,11,55,11.30
2010,10,25,11,56,19.30
2010,10,25,11,57,16.10
2010,10,25,11,58,20.90
2010,10,25,11,59,17.70
2010,10,25,12,00,16.10
2010,10,25,12,01,12.90
2010,10,25,12,02,11.30
2010,10,25,12,03,16.10
2010,10,25,12,04,11.30
2010,10,25,12,05,16.10
2010,10,25,12,06,17.70
2010,10,25,12,07,14.50
2010,10,25,12,08,14.50
2010,10,25,12,09,14.50
2010,10,25,12,10,14.50
2010,10,25,12,11,16.10
2010,10,25,12,12,14.50
2010,10,25,12,13,17.70
2010,10,25,12,14,20.90
2010,10,25,12,15,19.30
2010,10,25,12,16,14.50
2010,10,25,12,17,17.70
2010,10,25,12,18,22.50
2010,10,25,12,19,19.30
2010,10,25,12,20,24.20
2010,10,25,12,21,24.20
2010,10,25,12,22,22.50
2010,10,25,12,23,17.70
2010,10,25,12,24,25.70
2010,10,25,12,25,17.70
2010,10,25,12,26,20.90
2010,10,25,12,27,25.70
2010,10,25,12,28,25.70
2010,10,25,12,29,24.20
2010,10,25,12,30,17.70
2010,10,25,12,31,17.70
2010,10,25,12,32,14.50
2010,10,25,12,33,14.50
2010,10,25,12,34,17.70
2010,10,25,12,35,24.20
2010,10,25,12,36,19.30
2010,10,25,12,37,17.70
2010,10,25,12,38,19.30
2010,10,25,12,39,24.20
2010,10,25,12,40,25.70
2010,10,25,12,41,19.30
2010,10,25,12,42,24.20
2010,10,25,12,43,24.20
2010,10,25,12,44,25.70
2010,10,25,12,45,16.10
2010,10,25,12,46,24.20
2010,10,25,12,47,25.70
2010,10,25,12,48,22.50
2010,10,25,12,49,20.90
2010,10,25,12,50,27.40
2010,10,25,12,51,22.50
2010,10,25,12,52,24.20
2010,10,25,12,53,19.30
2010,10,25,12,54,24.20
2010,10,25,12,55,17.70
2010,10,25,12,56,17.70
2010,10,25,12,57,22.50
2010,10,25,12,58,24.20
2010,10,25,12,59,19.30
2010,10,25,13,00,19.30
2010,10,25,13,01,19.30
2010,10,25,13,02,25.70
2010,10,25,13,03,25.70
2010,10,25,13,04,20.90
2010,10,25,13,05,24.20
2010,10,25,13,06,19.30
2010,10,25,13,07,22.50
2010,10,25,13,08,19.30
2010,10,25,13,09,27.40
2010,10,25,13,10,20.90
2010,10,25,13,11,25.70
2010,10,25,13,12,24.20
2010,10,25,13,13,22.50
2010,10,25,13,14,27.40
2010,10,25,13,15,24.20
2010,10,25,13,16,17.70
2010,10,25,13,17,22.50
2010,10,25,13,18,22.50
2010,10,25,13,19,19.30
2010,10,25,13,20,19.30
2010,10,25,13,21,17.70
2010,10,25,13,22,17.70
2010,10,25,13,23,24.20
2010,10,25,13,24,17.70
2010,10,25,13,25,19.30
2010,10,25,13,26,20.90
2010,10,25,13,27,14.50
2010,10,25,13,28,16.10
2010,10,25,13,29,24.20
2010,10,25,13,30,9.60
2010,10,25,13,31,11.30
2010,10,25,13,32,16.10
2010,10,25,13,33,19.30
2010,10,25,13,34,24.20
2010,10,25,13,35,20.90
2010,10,25,13,36,17.70
2010,10,25,13,37,19.30
2010,10,25,13,38,27.40
2010,10,25,13,39,19.30
2010,10,25,13,40,17.70
2010,10,25,13,41,25.70
2010,10,25,13,42,24.20
2010,10,25,13,43,14.50
2010,10,25,13,44,20.90
2010,10,25,13,45,19.30
2010,10,25,13,46,19.30
2010,10,25,13,47,17.70
2010,10,25,13,48,17.70
2010,10,25,13,49,24.20
2010,10,25,13,50,24.20
2010,10,25,13,51,16.10
2010,10,25,13,52,20.90
2010,10,25,13,53,19.30
2010,10,25,13,54,19.30
2010,10,25,13,55,25.70
2010,10,25,13,56,22.50
2010,10,25,13,57,25.70
2010,10,25,13,58,20.90
2010,10,25,13,59,20.90
2010,10,25,14,00,22.50
2010,10,25,14,01,20.90
2010,10,25,14,02,16.10
2010,10,25,14,03,17.70
2010,10,25,14,04,20.90
2010,10,25,14,05,19.30
2010,10,25,14,06,22.50
2010,10,25,14,07,17.70
2010,10,25,14,08,17.70
2010,10,25,14,09,20.90
2010,10,25,14,10,16.10
2010,10,25,14,11,20.90
2010,10,25,14,12,16.10
2010,10,25,14,13,17.70
2010,10,25,14,14,14.50
2010,10,25,14,15,17.70
2010,10,25,14,16,27.40
2010,10,25,14,17,17.70
2010,10,25,14,18,22.50
2010,10,25,14,19,14.50
2010,10,25,14,20,27.40
2010,10,25,14,21,29.00
2010,10,25,14,22,20.90
2010,10,25,14,23,11.30
2010,10,25,14,24,19.30
2010,10,25,14,25,22.50
2010,10,25,14,26,19.30
2010,10,25,14,27,14.50
2010,10,25,14,28,14.50
2010,10,25,14,29,16.10
2010,10,25,14,30,14.50
2010,10,25,14,31,9.60
2010,10,25,14,32,17.70
2010,10,25,14,33,19.30
2010,10,25,14,34,20.90
2010,10,25,14,35,19.30
2010,10,25,14,36,19.30
2010,10,25,14,37,17.70
2010,10,25,14,38,19.30
2010,10,25,14,39,20.90
2010,10,25,14,40,24.20
2010,10,25,14,41,19.30
2010,10,25,14,42,27.40
2010,10,25,14,43,24.20
2010,10,25,14,44,14.50
2010,10,25,14,45,17.70
2010,10,25,14,46,20.90
2010,10,25,14,47,24.20
2010,10,25,14,48,24.20
2010,10,25,14,49,24.20
2010,10,25,14,50,25.70
2010,10,25,14,51,38.60
2010,10,25,14,52,33.80
2010,10,25,14,53,32.20
2010,10,25,14,54,30.60
2010,10,25,14,55,20.90
2010,10,25,14,56,29.00
2010,10,25,14,57,29.00
2010,10,25,14,58,38.60
2010,10,25,14,59,19.30
2010,10,25,15,00,30.60
2010,10,25,15,01,25.70
2010,10,25,15,02,25.70
2010,10,25,15,03,45.10
2010,10,25,15,04,30.60
2010,10,25,15,05,27.40
2010,10,25,15,06,33.80
2010,10,25,15,07,29.00
2010,10,25,15,08,25.70
2010,10,25,15,09,25.70
2010,10,25,15,10,20.90
2010,10,25,15,11,33.80
2010,10,25,15,12,32.20
2010,10,25,15,13,17.70
2010,10,25,15,14,30.60
2010,10,25,15,15,29.00
2010,10,25,15,16,35.40
2010,10,25,15,17,29.00
2010,10,25,15,18,27.40
2010,10,25,15,19,30.60
2010,10,25,15,20,33.80
2010,10,25,15,21,17.70
2010,10,25,15,22,38.60
2010,10,25,15,23,25.70
2010,10,25,15,24,27.40
2010,10,25,15,25,25.70
2010,10,25,15,26,30.60
2010,10,25,15,27,30.60
2010,10,25,15,28,30.60
2010,10,25,15,29,32.20
2010,10,25,15,30,32.20
2010,10,25,15,31,33.80
2010,10,25,15,32,40.20
2010,10,25,15,33,33.80
2010,10,25,15,34,24.20
2010,10,25,15,35,30.60
2010,10,25,15,36,29.00
2010,10,25,15,37,37.00
2010,10,25,15,38,29.00
2010,10,25,15,39,27.40
2010,10,25,15,40,30.60
2010,10,25,15,41,32.20
2010,10,25,15,42,25.70
2010,10,25,15,43,25.70
2010,10,25,15,44,25.70
2010,10,25,15,45,24.20
2010,10,25,15,46,22.50
2010,10,25,15,47,19.30
2010,10,25,15,48,19.30
2010,10,25,15,49,25.70
2010,10,25,15,50,32.20
2010,10,25,15,51,20.90
2010,10,25,15,52,25.70
2010,10,25,15,53,32.20
2010,10,25,15,54,29.00
2010,10,25,15,55,22.50
2010,10,25,15,56,40.20
2010,10,25,15,57,37.00
2010,10,25,15,58,30.60
2010,10,25,15,59,35.40
2010,10,25,16,00,25.70
2010,10,25,16,01,27.40
2010,10,25,16,02,32.20
2010,10,25,16,03,38.60
2010,10,25,16,04,40.20
2010,10,25,16,05,38.60
2010,10,25,16,06,40.20
2010,10,25,16,07,30.60
2010,10,25,16,08,19.30
2010,10,25,16,09,22.50
2010,10,25,16,10,32.20
2010,10,25,16,11,33.80
2010,10,25,16,12,27.40
2010,10,25,16,13,35.40
2010,10,25,16,14,29.00
2010,10,25,16,15,27.40
2010,10,25,16,16,30.60
2010,10,25,16,17,20.90
2010,10,25,16,18,30.60
2010,10,25,16,19,25.70
2010,10,25,16,20,32.20
2010,10,25,16,21,33.80
2010,10,25,16,22,35.40
2010,10,25,16,23,22.50
2010,10,25,16,24,30.60
2010,10,25,16,25,33.80
2010,10,25,16,26,33.80
2010,10,25,16,27,40.20
2010,10,25,16,28,37.00
2010,10,25,16,29,27.40
2010,10,25,16,30,38.60
2010,10,25,16,31,35.40
2010,10,25,16,32,40.20
2010,10,25,16,33,37.00
2010,10,25,16,34,38.60
2010,10,25,16,35,38.60
2010,10,25,16,36,38.60
2010,10,25,16,37,29.00
2010,10,25,16,38,29.00
2010,10,25,16,39,27.40
2010,10,25,16,40,30.60
2010,10,25,16,41,33.80
2010,10,25,16,42,32.20
2010,10,25,16,43,27.40
2010,10,25,16,44,27.40
2010,10,25,16,45,33.80
2010,10,25,16,46,49.90
2010,10,25,16,47,29.00
2010,10,25,16,48,27.40
2010,10,25,16,49,27.40
2010,10,25,16,50,30.60
2010,10,25,16,51,27.40
2010,10,25,16,52,25.70
2010,10,25,16,53,27.40
2010,10,25,16,54,33.80
2010,10,25,16,55,29.00
2010,10,25,16,56,25.70
2010,10,25,16,57,20.90
2010,10,25,16,58,32.20
2010,10,25,16,59,27.40
2010,10,25,17,00,29.00
2010,10,25,17,01,32.20
2010,10,25,17,02,25.70
2010,10,25,17,03,27.40
2010,10,25,17,04,40.20
2010,10,25,17,05,24.20
2010,10,25,17,06,24.20
2010,10,25,17,07,27.40
2010,10,25,17,08,32.20
2010,10,25,17,09,25.70
2010,10,25,17,10,33.80
2010,10,25,17,11,27.40
2010,10,25,17,12,30.60
2010,10,25,17,13,24.20
2010,10,25,17,14,17.70
2010,10,25,17,15,22.50
2010,10,25,17,16,24.20
2010,10,25,17,17,29.00
2010,10,25,17,18,32.20
2010,10,25,17,19,20.90
2010,10,25,17,20,19.30
2010,10,25,17,21,20.90
2010,10,25,17,22,24.20
2010,10,25,17,23,19.30
2010,10,25,17,24,24.20
2010,10,25,17,25,20.90
2010,10,25,17,26,19.30
2010,10,25,17,27,27.40
2010,10,25,17,28,22.50
2010,10,25,17,29,24.20
2010,10,25,17,30,25.70
2010,10,25,17,31,27.40
2010,10,25,17,32,20.90
2010,10,25,17,33,27.40
2010,10,25,17,34,29.00
2010,10,25,17,35,20.90
2010,10,25,17,36,30.60
2010,10,25,17,37,25.70
2010,10,25,17,38,22.50
2010,10,25,17,39,29.00
2010,10,25,17,40,20.90
2010,10,25,17,41,12.90
2010,10,25,17,42,19.30
2010,10,25,17,43,25.70
2010,10,25,17,44,22.50
2010,10,25,17,45,22.50
2010,10,25,17,46,17.70
2010,10,25,17,47,25.70
2010,10,25,17,48,22.50
2010,10,25,17,49,29.00
2010,10,25,17,50,32.20
2010,10,25,17,51,29.00
2010,10,25,17,52,33.80
2010,10,25,17,53,25.70
2010,10,25,17,54,19.30
2010,10,25,17,55,33.80
2010,10,25,17,56,29.00
2010,10,25,17,57,24.20
2010,10,25,17,58,25.70
2010,10,25,17,59,24.20
2010,10,25,18,00,38.60
2010,10,25,18,01,24.20
2010,10,25,18,02,38.60
2010,10,25,18,03,35.40
2010,10,25,18,04,22.50
2010,10,25,18,05,29.00
2010,10,25,18,06,24.20
2010,10,25,18,07,43.50
2010,10,25,18,08,35.40
2010,10,25,18,09,25.70
2010,10,25,18,10,30.60
2010,10,25,18,11,20.90
2010,10,25,18,12,27.40
2010,10,25,18,13,22.50
2010,10,25,18,14,24.20
2010,10,25,18,15,27.40
2010,10,25,18,16,29.00
2010,10,25,18,17,22.50
2010,10,25,18,18,24.20
2010,10,25,18,19,20.90
2010,10,25,18,20,16.10
2010,10,25,18,21,12.90
2010,10,25,18,22,29.00
2010,10,25,18,23,29.00